Location: Falniów
(50.3639°N, 19.9642°E)
Time: 09:25:47
(UTC+00:00)

SOZ - Pass Details

Date: 18 January 2026
Orbit: 328 x 16064 km, 51.9° (Epoch: 15 February)

Event Time Altitude Azimuth Distance (km) Brightness Sun altitude
Exits shadow 05:02:36 29° 290° (WNW) 738 4.9 -13.8°
Maximum altitude 05:03:47 76° 12° (NNE) 464 4.4 -13.6°
Drops below altitude 10° 05:08:29 10° 99° (E) 2,571 9.7 -12.9°
Sets 05:12:51 0° 101° (ESE) 4,709 11.6 -12.2°
